Location: Byszew
(52.1813°N, 19.2693°E)
Time: 16:48:25
(UTC+00:00)

SPROUT - Pass Details

Date: 02 July 2022
Orbit: 588 x 598 km, 97.9° (Epoch: 09 August)

Event Time Altitude Azimuth Distance (km) Brightness Sun altitude
Exits shadow 23:03:47 20° 149° (SSE) 1,384 ? -14.8°
Maximum altitude 23:06:34 65° 72° (ENE) 653 ? -14.7°
Drops below altitude 10° 23:10:43 10° 351° (N) 1,932 ? -14.7°
Sets 23:12:54 0° 348° (NNW) 2,839 ? -14.6°
